Location: Christchurch
(43.5000°S, 172.6000°E)
Time: 20:31:59
(UTC+13:00)

ISS - Visible Passes

Search period start: 18 October 2017 00:00
Search period end: 28 October 2017 00:00
Orbit: 401 x 408 km, 51.6° (Epoch: 19 October)

Date Brightness Start Highest point End Pass type
(mag) Time Alt. Az. Time Alt. Az. Time Alt. Az.
18 Oct -1.5 04:25:40 16° SSW 04:27:22 23° S 04:30:07 10° ESE visible
18 Oct -3.4 06:00:58 10° SW 06:04:19 67° SSE 06:07:38 10° ENE visible
19 Oct -1.1 03:35:27 19° SSE 03:35:27 19° SSE 03:37:29 10° SE visible
19 Oct -2.5 05:08:45 10° SW 05:11:59 42° SSE 05:15:11 10° E visible
20 Oct -1.9 04:18:03 21° SSW 04:19:34 30° SSE 04:22:35 10° E visible
20 Oct -3.7 05:52:55 10° WSW 05:56:14 57° NW 05:59:29 10° NE visible
21 Oct -1.1 03:28:10 20° SE 03:28:10 20° SE 03:29:54 10° ESE visible
21 Oct -3.7 05:00:51 12° SW 05:03:58 81° SSE 05:07:18 10° ENE visible
22 Oct -2.9 04:11:17 46° S 04:11:37 49° SSE 04:14:52 10° ENE visible
22 Oct -2.6 05:45:08 10° W 05:47:56 25° NW 05:50:43 10° NNE visible
23 Oct -0.6 03:22:12 10° E 03:22:12 10° E 03:22:17 10° E visible
23 Oct -3.5 04:54:56 36° W 04:55:46 45° NW 04:58:57 10° NE visible
23 Oct -2.0 21:33:03 10° NNW 21:34:17 18° N 21:34:17 18° N visible
24 Oct -1.1 04:06:30 12° NE 04:06:30 12° NE 04:06:49 10° NE visible
24 Oct -1.7 05:39:18 11° NW 05:39:28 11° NW 05:40:31 10° NNW visible
24 Oct -2.1 20:41:44 10° N 20:43:50 16° NE 20:45:57 10° E visible
24 Oct -3.0 22:16:36 10° WNW 22:19:10 48° W 22:19:10 48° W visible
25 Oct -3.8 21:24:18 10° NW 21:27:37 64° NE 21:30:33 13° ESE visible
25 Oct -1.4 23:01:20 10° W 23:03:17 24° SW 23:03:17 24° SW visible
26 Oct -3.1 20:32:17 10° NNW 20:35:20 34° NE 20:38:27 10° ESE visible
26 Oct -2.4 22:08:37 10° W 22:11:48 39° SSW 22:14:02 17° SE visible
26 Oct -0.4 23:46:20 10° SW 23:46:44 12° SW 23:46:44 12° SW visible
27 Oct -3.2 21:16:01 10° WNW 21:19:21 61° SSW 21:22:42 10° SE visible
27 Oct -1.4 22:53:36 10° WSW 22:56:19 22° S 22:57:01 21° S visible
